Location: Gorlice
(49.6633°N, 21.1693°E)
Time: 07:41:05
(UTC+01:00)

ISS - Pass Details

Date: 26 January 2019
Orbit: 403 x 411 km, 51.6° (Epoch: 22 February)

Event Time Altitude Azimuth Distance (km) Brightness Sun altitude
Rises 17:36:33 0° 228° (SW) 2,325 1.2 -12.3°
Reaches altitude 10° 17:38:41 10° 221° (SW) 1,469 -0.1 -12.7°
Maximum altitude 17:41:48 40° 150° (SSE) 614 -3.1 -13.2°
Enters shadow 17:43:19 24° 95° (E) 891 -2.7 -13.4°
